Terminal Aerodrome Forecast
Issued by NWS

Home | Current Version | Previous Version | Text Only | Print | Product List | Glossary On
Versions: 1 2 3 4 5 6 7 8 9 10 11 12 13 14 15 16 17 18
081
FTUS43 KICT 250750 AAA
TAFSLN
TAF AMD
KSLN 250750Z 2508/2606 34015KT P6SM VCSH OVC008
     FM251500 33017G23KT P6SM OVC015
     FM252100 34012KT P6SM OVC025
     FM260300 36005KT P6SM BKN035=

USA.gov is the U.S. government's official web portal to all federal, state and local government web resources and services.